User: anonymous   Login
Location: Unspecified
(0.0000°N, 0.0000°E)
Time: 07:57:00
(UTC+00:00)
Language:

GALILEO-FM2 - Orbit

View from above orbital plane
View from above orbital plane
View from above satellite
View from above satellite

Ground track
Ground track

The orbit data is extracted from the following two-line orbital elements,

1 37847U 11060B   17143.03625676 -.00000039 +00000-0 +00000-0 0  9991
2 37847 055.8093 072.4150 0005769 320.8450 111.1466 01.70475825034667
Epoch (UTC): 23 May 2017 00:52:12
Eccentricity: 0.0005769
inclination: 55.8093°
perigee height: 23204 km
apogee height: 23239 km
right ascension of ascending node: 72.4150°
argument of perigee: 320.8450°
revolutions per day: 1.70475825
mean anomaly at epoch: 111.1466°
orbit number at epoch: 3466

The dashed part of the orbit path shows where the satellite is in the earth's shadow,  

DLR